User: anonymous   Login
Location: Columbia
(38.9520°N, 92.3340°W)
Time: 20:50:46
(UTC-06:00)
Language:

Iridium 15 - Orbit

View from above orbital plane
View from above orbital plane
View from above satellite
View from above satellite

Ground track
Ground track

The orbit data is extracted from the following two-line orbital elements,

1 24869U 97034A   17345.46619172  .00000118  00000-0  31933-4 0  9991
2 24869  86.4170 307.8934 0002458  92.8215 267.3265 14.38607331 69425
Epoch (UTC): 11 December 2017 11:11:18
Eccentricity: 0.0002458
inclination: 86.4170°
perigee height: 761 km
apogee height: 765 km
right ascension of ascending node: 307.8934°
argument of perigee: 92.8215°
revolutions per day: 14.38607331
mean anomaly at epoch: 267.3265°
orbit number at epoch: 6942

The dashed part of the orbit path shows where the satellite is in the earth's shadow,  

DLR